| time (UTC) | temp F | wind direction | speed knots | gust knots | rain 1hr in | rain 24hr in | rain mn in | humidity % | barometer mb |
| 20260505121507 | 62 | 291 | 0.9 | 5.2 | 0.00 | 0.00 | 0.00 | 69 | 1006.1 |
| 20260505120010 | 62 | 95 | 1.7 | 4.3 | 0.00 | 0.00 | 0.00 | 68 | 1006.4 |
| 20260505114520 | 62 | 278 | 0.9 | 7.0 | 0.00 | 0.00 | 0.00 | 66 | 1006.6 |
| 20260505113019 | 63 | 290 | 0.9 | 3.5 | 0.00 | 0.00 | 0.00 | 64 | 1006.5 |
| 20260505111509 | 63 | 170 | 1.7 | 3.5 | 0.00 | 0.00 | 0.00 | 64 | 1006.5 |
| 20260505101520 | 64 | 231 | 0.9 | 5.2 | 0.00 | 0.00 | 0.00 | 61 | 1006.2 |
| 20260505100006 | 64 | 229 | 2.6 | 7.8 | 0.00 | 0.00 | 0.00 | 60 | 1006.1 |
| 20260505094510 | 64 | 166 | 0.9 | 8.7 | 0.00 | 0.00 | 0.00 | 61 | 1005.9 |
| 20260505093015 | 64 | 234 | 0.9 | 5.2 | 0.00 | 0.00 | 0.00 | 62 | 1005.8 |
| 20260505091529 | 64 | 273 | 1.7 | 5.2 | 0.00 | 0.00 | 0.00 | 61 | 1005.6 |
| 20260505090040 | 64 | 281 | 0.9 | 4.3 | 0.00 | 0.00 | 0.00 | 63 | 1005.5 |
| 20260505084507 | 64 | 318 | 0.9 | 10.4 | 0.00 | 0.00 | 0.00 | 61 | 1005.4 |
| 20260505083013 | 63 | 21 | 2.6 | 10.4 | 0.00 | 0.00 | 0.00 | 63 | 1005.4 |
| 20260505081521 | 63 | 241 | 0.9 | 5.2 | 0.00 | 0.00 | 0.00 | 63 | 1005.3 |
| 20260505080041 | 63 | 310 | 0.9 | 3.5 | 0.00 | 0.00 | 0.00 | 64 | 1005.2 |
| 20260505074528 | 63 | 197 | 1.7 | 3.5 | 0.00 | 0.00 | 0.00 | 64 | 1005.2 |
| 20260505073013 | 63 | 253 | 0.9 | 5.2 | 0.00 | 0.00 | 0.00 | 64 | 1004.8 |
| 20260505071510 | 63 | 256 | 0.9 | 5.2 | 0.00 | 0.00 | 0.00 | 65 | 1004.8 |
| 20260505070021 | 63 | 236 | 1.7 | 4.3 | 0.00 | 0.00 | 0.00 | 65 | 1004.7 |
| 20260505064522 | 63 | 223 | 1.7 | 4.3 | 0.00 | 0.00 | 0.00 | 64 | 1004.8 |
| 20260505063023 | 63 | 165 | 0.9 | 5.2 | 0.00 | 0.00 | 0.00 | 63 | 1004.9 |
| 20260505061516 | 64 | 271 | 0.9 | 4.3 | 0.00 | 0.00 | 0.00 | 63 | 1005.0 |
| 20260505060022 | 64 | 285 | 0.9 | 6.1 | 0.00 | 0.00 | 0.00 | 63 | 1005.1 |
| 20260505054523 | 64 | 84 | 0.9 | 5.2 | 0.00 | 0.00 | 0.00 | 63 | 1005.3 |
| 20260505053022 | 65 | 283 | 0.9 | 7.0 | 0.00 | 0.00 | 0.00 | 62 | 1005.6 |
| 20260505051525 | 65 | 252 | 1.7 | 5.2 | 0.00 | 0.00 | 0.00 | 62 | 1005.7 |
| 20260505041540 | 64 | 18 | 0.9 | 4.3 | 0.00 | 0.00 | 0.00 | 63 | 1005.6 |
| 20260505040027 | 64 | 275 | 0.9 | 5.2 | 0.00 | 0.00 | 0.00 | 64 | 1005.6 |
| 20260505034527 | 64 | 257 | 0.9 | 4.3 | 0.00 | 0.00 | 0.00 | 64 | 1005.9 |
| 20260505033019 | 63 | 244 | 0.9 | 3.5 | 0.00 | 0.00 | 0.00 | 64 | 1005.9 |
| 20260505031522 | 64 | 230 | 0.9 | 4.3 | 0.00 | 0.00 | 0.00 | 64 | 1006.0 |
| 20260505030033 | 63 | 285 | 0.9 | 4.3 | 0.00 | 0.00 | 0.00 | 64 | 1006.0 |
| 20260505024527 | 63 | 295 | 0.9 | 4.3 | 0.00 | 0.00 | 0.00 | 63 | 1005.9 |
| 20260505023039 | 64 | 244 | 1.7 | 5.2 | 0.00 | 0.00 | 0.00 | 63 | 1005.8 |
| 20260505021516 | 63 | 257 | 0.9 | 4.3 | 0.00 | 0.00 | 0.00 | 63 | 1005.9 |
| 20260505020021 | 64 | 167 | 0.9 | 2.6 | 0.00 | 0.00 | 0.00 | 62 | 1006.1 |
| 20260505014506 | 64 | 268 | 0.9 | 5.2 | 0.00 | 0.00 | 0.00 | 62 | 1006.2 |
| 20260505013018 | 64 | 276 | 0.0 | 5.2 | 0.00 | 0.00 | 0.00 | 61 | 1006.1 |
| 20260505011521 | 65 | 288 | 0.9 | 3.5 | 0.00 | 0.00 | 0.00 | 60 | 1005.9 |
| 20260505010019 | 65 | 284 | 0.9 | 3.5 | 0.00 | 0.00 | 0.00 | 59 | 1005.9 |
| 20260505004503 | 66 | 271 | 0.0 | 7.8 | 0.00 | 0.00 | 0.00 | 57 | 1005.8 |
| 20260505003007 | 67 | 243 | 1.7 | 5.2 | 0.00 | 0.00 | 0.00 | 56 | 1005.8 |
| 20260505001514 | 67 | 247 | 2.6 | 7.0 | 0.00 | 0.00 | 0.00 | 54 | 1005.6 |
| 20260505000027 | 68 | 265 | 2.6 | 13.0 | 0.00 | 0.00 | 0.00 | 53 | 1005.5 |
| 20260504234523 | 68 | 325 | 2.6 | 12.2 | 0.00 | 0.00 | 0.00 | 52 | 1005.5 |
| 20260504233007 | 69 | 247 | 1.7 | 9.6 | 0.00 | 0.00 | 0.00 | 51 | 1005.4 |
| 20260504231508 | 70 | 295 | 1.7 | 6.1 | 0.00 | 0.00 | 0.00 | 48 | 1005.4 |
| 20260504230017 | 71 | 264 | 2.6 | 6.1 | 0.00 | 0.00 | 0.00 | 48 | 1005.4 |
| 20260504224517 | 71 | 280 | 2.6 | 5.2 | 0.00 | 0.00 | 0.00 | 48 | 1005.6 |
| 20260504223023 | 71 | 154 | 2.6 | 9.6 | 0.00 | 0.00 | 0.00 | 48 | 1005.7 |
| 20260504221505 | 72 | 247 | 4.3 | 9.6 | 0.00 | 0.00 | 0.00 | 45 | 1005.7 |
| 20260504220011 | 72 | 236 | 2.6 | 13.0 | 0.00 | 0.00 | 0.00 | 48 | 1005.6 |
| 20260504214514 | 73 | 276 | 3.5 | 11.3 | 0.00 | 0.00 | 0.00 | 49 | 1005.5 |
| 20260504213042 | 73 | 274 | 3.5 | 12.2 | 0.00 | 0.00 | 0.00 | 48 | 1005.5 |
| 20260504211525 | 73 | 231 | 4.3 | 7.8 | 0.00 | 0.00 | 0.00 | 46 | 1005.6 |
| 20260504210011 | 73 | 288 | 2.6 | 11.3 | 0.00 | 0.00 | 0.00 | 46 | 1005.8 |
| 20260504204512 | 73 | 267 | 2.6 | 9.6 | 0.00 | 0.00 | 0.00 | 48 | 1005.8 |
| 20260504203016 | 72 | 282 | 1.7 | 9.6 | 0.00 | 0.00 | 0.00 | 48 | 1006.0 |
| 20260504201526 | 74 | 310 | 3.5 | 7.8 | 0.00 | 0.00 | 0.00 | 47 | 1005.9 |
| 20260504200024 | 73 | 315 | 1.7 | 11.3 | 0.00 | 0.00 | 0.00 | 48 | 1005.9 |
| 20260504194514 | 73 | 271 | 2.6 | 9.6 | 0.00 | 0.00 | 0.00 | 48 | 1006.0 |
| 20260504193012 | 73 | 268 | 1.7 | 7.8 | 0.00 | 0.00 | 0.00 | 47 | 1006.2 |
| 20260504191520 | 73 | 269 | 2.6 | 7.8 | 0.00 | 0.00 | 0.00 | 47 | 1006.5 |
| 20260504190024 | 73 | 233 | 3.5 | 11.3 | 0.00 | 0.00 | 0.00 | 48 | 1006.6 |
| 20260504184523 | 73 | 276 | 2.6 | 7.0 | 0.00 | 0.00 | 0.00 | 47 | 1006.7 |
| 20260504183019 | 72 | 276 | 1.7 | 6.1 | 0.00 | 0.00 | 0.00 | 47 | 1006.8 |
| 20260504181516 | 71 | 330 | 1.7 | 9.6 | 0.00 | 0.00 | 0.00 | 51 | 1006.8 |
| 20260504180020 | 71 | 274 | 1.7 | 8.7 | 0.00 | 0.00 | 0.00 | 51 | 1007.0 |
| 20260504174522 | 69 | 70 | 3.5 | 11.3 | 0.00 | 0.00 | 0.00 | 51 | 1007.3 |
| 20260504173034 | 70 | 256 | 3.5 | 7.8 | 0.00 | 0.00 | 0.00 | 50 | 1007.3 |
| 20260504171518 | 70 | 265 | 2.6 | 9.6 | 0.00 | 0.00 | 0.00 | 48 | 1007.5 |